Regional Weather Roundup
Issued by NWS

Home | Current Version | Previous Version | Text Only | Print | Product List | Glossary Off
Versions: 1 2 3 4 5 6 7 8 9 10 11 12 13 14 15 16 17 18 19 20 21 22 23 24 25 26 27 28 29 30 31 32 33 34 35 36 37 38 39 40 41 42 43 44 45 46 47 48 49 50

000
ASUS43 KIND 270359
RWRIN

WEATHER ROUNDUP FOR INDIANA
NATIONAL WEATHER SERVICE INDIANAPOLIS IN
1200 AM EDT MON APR 27 2015

NOTE: "FAIR" INDICATES FEW OR NO CLOUDS BELOW 12,000 FEET WITH NO
SIGNIFICANT WEATHER AND/OR OBSTRUCTIONS TO VISIBILITY.

* - STATION DOES NOT REPORT WEATHER SUCH AS PRECIPITATION OR FOG.

+ - STATION NOT QUALITY CONTROLLED BY THE NATIONAL WEATHER SERVICE.
    USE DATA WITH CAUTION...ESPECIALLY DEWPOINT AND RELATIVE
    HUMIDITY OBSERVATIONS.

INZ001>003-010>013-019-020-270500-
NORTHWEST INDIANA

CITY           SKY/WX    TMP DP  RH WIND       PRES   REMARKS

$$

LMZ046-743>745-270500-
SOUTHERN LAKE MICHIGAN

STATION/POSITION TIME  TEMP    WIND        PRES    WAVE
                       AIR SEA DIR/SP/G            HT
                 (UTC) (F)     (DEG/KT/KT) (MB)    (FT)
BURNS HARBOR     0300   43     350/ 12/ 16 1016.9R
MICHIGAN CITY    0300   41     310/  9/ 12   N/A
5NW MICH CITY    0300   41 45  340/ 12/ 14   N/A     3

$$

INZ004-005-014>016-021>024-270500-
NORTH CENTRAL INDIANA

CITY           SKY/WX    TMP DP  RH WIND       PRES   REMARKS
GOSHEN         PTCLDY    40  28  62 NW8       29.95S
SOUTH BEND     PTCLDY    40  27  59 NW8       29.98S

$$

INZ006>009-017-018-025>027-270500-
NORTHEAST INDIANA

CITY           SKY/WX    TMP DP  RH WIND       PRES   REMARKS
ANGOLA *+      CLOUDY    48  36  61 NW6       29.92S
FORT WAYNE     CLOUDY    48  31  51 NW7       29.94S

$$

INZ028-029-035-036-043>045-051>053-270500-
WEST CENTRAL INDIANA

CITY           SKY/WX    TMP DP  RH WIND       PRES   REMARKS
CRAWFORDSVL +  CLEAR     40  25  54 NW5       29.99S
GREENCASTLE +  CLEAR     43  28  56 N8        29.99S
LAFAYETTE      CLEAR     40  27  59 N6        29.99S
TERRE HAUTE    CLEAR     46  32  58 N9        30.00R

$$

INZ030>032-037>040-046>048-054>057-064-065-270500-
CENTRAL INDIANA

CITY           SKY/WX    TMP DP  RH WIND       PRES   REMARKS
GREENWOOD *+   CLEAR     46  30  53 N9        29.96R
INDIANAPOLIS   PTCLDY    45  31  58 N12       29.95S
-EAGLE CREEK   CLEAR     46  31  55 N14       29.96S
KOKOMO *+      CLEAR     43  30  61 NW8       29.96S
MT COMFORT *+  CLEAR     45  27  49 NW12      29.96S
SHELBYVILLE    PTCLDY    49  37  63 N12       29.94R

$$

INZ033-034-041-042-049-050-058-059-270500-
EAST CENTRAL INDIANA

CITY           SKY/WX    TMP DP  RH WIND       PRES   REMARKS
MUNCIE         CLOUDY    49  34  56 N10       29.94R

$$

INZ060-061-067>069-081>083-085>088-270500-
SOUTHWEST INDIANA

CITY           SKY/WX    TMP DP  RH WIND       PRES   REMARKS
EVANSVILLE     CLEAR     52  37  56 N6        29.97R
HUNTINGBURG *+ CLEAR     48  36  61 N5        29.96R

$$

INZ062-063-066-070>080-084-089>092-270500-
SOUTH CENTRAL AND SOUTHEAST INDIANA

CITY           SKY/WX    TMP DP  RH WIND       PRES   REMARKS
BLOOMINGTON    CLEAR     46  36  68 N9        29.97R
MADISON *+     PTCLDY    43  37  81 CALM      29.94S
SEYMOUR +      MOCLDY    46  36  66 CALM      29.94S

$$




USA.gov is the U.S. government's official web portal to all federal, state and local government web resources and services.